| time (UTC) | temp F | wind direction | speed MPH | gust MPH | rain 1hr in | rain 24hr in | rain mn in | humidity % | barometer mb |
| 20260509212506 | 93 | 75 | 0.0 | 1.0 | 0.00 | 0.00 | 0.00 | 60 | 1008.1 |
| 20260509212007 | 93 | 114 | 0.0 | 1.0 | 0.00 | 0.00 | 0.00 | 60 | 1008.2 |
| 20260509211527 | 95 | 85 | 0.0 | 2.0 | 0.00 | 0.00 | 0.00 | 56 | 1008.3 |
| 20260509211006 | 95 | 242 | 0.0 | 2.0 | 0.00 | 0.00 | 0.00 | 60 | 1008.2 |
| 20260509210503 | 94 | 1 | 0.0 | 2.0 | 0.00 | 0.00 | 0.00 | 61 | 1008.4 |
| 20260509210029 | 94 | 316 | 0.0 | 1.0 | 0.00 | 0.00 | 0.00 | 56 | 1008.5 |
| 20260509205506 | 94 | 236 | 0.0 | 1.0 | 0.00 | 0.00 | 0.00 | 60 | 1008.6 |
| 20260509205008 | 93 | 235 | 0.0 | 1.0 | 0.00 | 0.00 | 0.00 | 61 | 1008.6 |
| 20260509204524 | 91 | 40 | 0.0 | 2.0 | 0.00 | 0.00 | 0.00 | 66 | 1008.7 |
| 20260509204007 | 92 | 40 | 1.0 | 2.0 | 0.00 | 0.00 | 0.00 | 60 | 1008.7 |
| 20260509203511 | 94 | 226 | 0.0 | 1.0 | 0.00 | 0.00 | 0.00 | 60 | 1008.8 |
| 20260509203025 | 93 | 224 | 0.0 | 1.0 | 0.00 | 0.00 | 0.00 | 61 | 1008.8 |
| 20260509202505 | 93 | 224 | 0.0 | 1.0 | 0.00 | 0.00 | 0.00 | 63 | 1009.0 |
| 20260509202018 | 92 | 115 | 0.0 | 2.0 | 0.00 | 0.00 | 0.00 | 62 | 1008.9 |
| 20260509201523 | 91 | 218 | 0.0 | 2.0 | 0.00 | 0.00 | 0.00 | 62 | 1008.9 |
| 20260509201010 | 90 | 219 | 0.0 | 1.0 | 0.00 | 0.00 | 0.00 | 66 | 1009.0 |
| 20260509200511 | 90 | 239 | 0.0 | 3.0 | 0.00 | 0.00 | 0.00 | 64 | 1009.0 |
| 20260509200020 | 90 | 306 | 1.0 | 3.0 | 0.00 | 0.00 | 0.00 | 65 | 1009.1 |
| 20260509195515 | 91 | 274 | 0.0 | 2.0 | 0.00 | 0.00 | 0.00 | 63 | 1009.1 |
| 20260509195007 | 91 | 280 | 0.0 | 1.0 | 0.00 | 0.00 | 0.00 | 64 | 1009.2 |
| 20260509194529 | 90 | 207 | 0.0 | 1.0 | 0.00 | 0.00 | 0.00 | 64 | 1009.2 |
| 20260509194011 | 90 | 203 | 0.0 | 2.0 | 0.00 | 0.00 | 0.00 | 64 | 1009.2 |
| 20260509193512 | 89 | 177 | 0.0 | 3.0 | 0.00 | 0.00 | 0.00 | 68 | 1009.3 |
| 20260509193028 | 89 | 354 | 1.0 | 3.0 | 0.00 | 0.00 | 0.00 | 65 | 1009.4 |
| 20260509192510 | 89 | 216 | 0.0 | 4.0 | 0.00 | 0.00 | 0.00 | 67 | 1009.5 |
| 20260509192007 | 89 | 238 | 0.0 | 4.0 | 0.00 | 0.00 | 0.00 | 65 | 1009.5 |
| 20260509191528 | 89 | 203 | 1.0 | 2.0 | 0.00 | 0.00 | 0.00 | 67 | 1009.5 |
| 20260509191007 | 89 | 217 | 0.0 | 2.0 | 0.00 | 0.00 | 0.00 | 66 | 1009.6 |
| 20260509190509 | 89 | 207 | 0.0 | 2.0 | 0.00 | 0.00 | 0.00 | 65 | 1009.6 |
| 20260509190025 | 90 | 206 | 0.0 | 3.0 | 0.00 | 0.00 | 0.00 | 65 | 1009.8 |
| 20260509185506 | 90 | 334 | 0.0 | 3.0 | 0.00 | 0.00 | 0.00 | 65 | 1009.9 |
| 20260509185010 | 90 | 322 | 0.0 | 2.0 | 0.00 | 0.00 | 0.00 | 63 | 1009.9 |
| 20260509184537 | 89 | 207 | 0.0 | 2.0 | 0.00 | 0.00 | 0.00 | 66 | 1010.0 |
| 20260509184012 | 88 | 213 | 0.0 | 2.0 | 0.00 | 0.00 | 0.00 | 70 | 1010.1 |
| 20260509183507 | 88 | 60 | 0.0 | 3.0 | 0.00 | 0.00 | 0.00 | 66 | 1010.2 |
| 20260509183024 | 88 | 224 | 1.0 | 3.0 | 0.00 | 0.00 | 0.00 | 66 | 1010.0 |
| 20260509182509 | 89 | 359 | 0.0 | 1.0 | 0.00 | 0.00 | 0.00 | 65 | 1010.2 |
| 20260509182011 | 90 | 247 | 0.0 | 1.0 | 0.00 | 0.00 | 0.00 | 66 | 1010.3 |
| 20260509181504 | 90 | 200 | 0.0 | 1.0 | 0.00 | 0.00 | 0.00 | 68 | 1010.4 |
| 20260509181004 | 89 | 200 | 0.0 | 2.0 | 0.00 | 0.00 | 0.00 | 70 | 1010.5 |
| 20260509180504 | 89 | 221 | 0.0 | 2.0 | 0.00 | 0.00 | 0.00 | 70 | 1010.7 |
| 20260509180003 | 88 | 220 | 0.0 | 1.0 | 0.00 | 0.00 | 0.00 | 71 | 1010.8 |
| 20260509175504 | 87 | 205 | 0.0 | 1.0 | 0.00 | 0.00 | 0.00 | 70 | 1010.8 |
| 20260509175004 | 86 | 205 | 0.0 | 2.0 | 0.00 | 0.00 | 0.00 | 73 | 1010.9 |
| 20260509174517 | 86 | 212 | 0.0 | 2.0 | 0.00 | 0.00 | 0.00 | 71 | 1010.8 |
| 20260509174003 | 86 | 231 | 0.0 | 2.0 | 0.00 | 0.00 | 0.00 | 72 | 1010.8 |
| 20260509173504 | 86 | 250 | 0.0 | 0.0 | 0.00 | 0.00 | 0.00 | 72 | 1010.9 |
| 20260509173015 | 85 | 357 | 0.0 | 1.0 | 0.00 | 0.00 | 0.00 | 77 | 1010.9 |
| 20260509172503 | 84 | 357 | 0.0 | 1.0 | 0.00 | 0.00 | 0.00 | 74 | 1010.9 |
| 20260509172002 | 84 | 328 | 0.0 | 1.0 | 0.00 | 0.00 | 0.00 | 77 | 1010.9 |
| 20260509171511 | 83 | 325 | 0.0 | 1.0 | 0.00 | 0.00 | 0.00 | 78 | 1010.9 |
| 20260509171002 | 83 | 354 | 0.0 | 3.0 | 0.00 | 0.00 | 0.00 | 76 | 1010.9 |
| 20260509170508 | 83 | 342 | 1.0 | 3.0 | 0.00 | 0.00 | 0.00 | 75 | 1010.8 |
| 20260509170009 | 83 | 238 | 0.0 | 1.0 | 0.00 | 0.00 | 0.00 | 77 | 1010.8 |
| 20260509165502 | 83 | 315 | 0.0 | 1.0 | 0.00 | 0.00 | 0.00 | 79 | 1010.8 |
| 20260509165005 | 83 | 315 | 0.0 | 1.0 | 0.00 | 0.00 | 0.00 | 78 | 1010.8 |
| 20260509164507 | 83 | 255 | 0.0 | 1.0 | 0.00 | 0.00 | 0.00 | 79 | 1010.9 |
| 20260509164002 | 82 | 252 | 0.0 | 4.0 | 0.00 | 0.00 | 0.00 | 81 | 1010.8 |
| 20260509163507 | 81 | 251 | 0.0 | 4.0 | 0.00 | 0.00 | 0.00 | 81 | 1010.6 |
| 20260509163004 | 81 | 223 | 0.0 | 5.0 | 0.00 | 0.00 | 0.00 | 84 | 1010.4 |
| 20260509162508 | 80 | 223 | 0.0 | 5.0 | 0.00 | 0.00 | 0.00 | 83 | 1010.6 |
| 20260509162005 | 80 | 139 | 0.0 | 1.0 | 0.00 | 0.00 | 0.00 | 84 | 1010.7 |
| 20260509161506 | 80 | 160 | 0.0 | 1.0 | 0.00 | 0.00 | 0.00 | 85 | 1010.8 |
| 20260509161008 | 79 | 139 | 0.0 | 2.0 | 0.00 | 0.00 | 0.00 | 85 | 1011.0 |
| 20260509160504 | 79 | 214 | 0.0 | 2.0 | 0.00 | 0.00 | 0.00 | 86 | 1011.1 |
| 20260509160003 | 79 | 188 | 0.0 | 1.0 | 0.00 | 0.00 | 0.00 | 88 | 1011.0 |
| 20260509155503 | 78 | 236 | 0.0 | 1.0 | 0.00 | 0.00 | 0.00 | 88 | 1011.0 |
| 20260509155003 | 78 | 237 | 0.0 | 0.0 | 0.00 | 0.00 | 0.00 | 88 | 1011.2 |
| 20260509154519 | 78 | 236 | 0.0 | 1.0 | 0.00 | 0.00 | 0.00 | 87 | 1011.4 |
| 20260509154010 | 78 | 204 | 0.0 | 1.0 | 0.00 | 0.00 | 0.00 | 88 | 1011.1 |
| 20260509153502 | 78 | 225 | 0.0 | 0.0 | 0.00 | 0.00 | 0.00 | 88 | 1011.1 |
| 20260509153016 | 78 | 226 | 0.0 | 0.0 | 0.00 | 0.00 | 0.00 | 89 | 1011.2 |
| 20260509152504 | 78 | 225 | 0.0 | 1.0 | 0.00 | 0.00 | 0.00 | 89 | 1011.3 |
| 20260509152014 | 78 | 226 | 0.0 | 1.0 | 0.00 | 0.00 | 0.00 | 90 | 1011.1 |
| 20260509151514 | 77 | 227 | 0.0 | 1.0 | 0.00 | 0.00 | 0.00 | 90 | 1011.2 |
| 20260509151003 | 77 | 205 | 0.0 | 0.0 | 0.00 | 0.00 | 0.00 | 90 | 1011.2 |
| 20260509150510 | 77 | 204 | 0.0 | 0.0 | 0.00 | 0.00 | 0.00 | 92 | 1011.1 |
| 20260509150010 | 77 | 204 | 0.0 | 0.0 | 0.00 | 0.00 | 0.00 | 91 | 1011.0 |
| 20260509145504 | 76 | 167 | 0.0 | 0.0 | 0.00 | 0.00 | 0.00 | 92 | 1010.9 |
| 20260509145005 | 76 | 167 | 0.0 | 0.0 | 0.00 | 0.00 | 0.00 | 92 | 1011.0 |
| 20260509144510 | 76 | 167 | 0.0 | 0.0 | 0.00 | 0.00 | 0.00 | 93 | 1011.1 |
| 20260509144009 | 76 | 166 | 0.0 | 0.0 | 0.00 | 0.00 | 0.00 | 93 | 1011.1 |
| 20260509143503 | 76 | 166 | 0.0 | 1.0 | 0.00 | 0.00 | 0.00 | 93 | 1010.9 |
| 20260509143006 | 75 | 165 | 0.0 | 1.0 | 0.00 | 0.00 | 0.00 | 93 | 1010.7 |
| 20260509142507 | 75 | 220 | 0.0 | 2.0 | 0.00 | 0.00 | 0.00 | 94 | 1010.7 |
| 20260509142007 | 75 | 219 | 0.0 | 2.0 | 0.00 | 0.00 | 0.00 | 94 | 1010.4 |
| 20260509141503 | 75 | 203 | 0.0 | 1.0 | 0.00 | 0.00 | 0.00 | 94 | 1010.5 |
| 20260509141008 | 75 | 203 | 0.0 | 1.0 | 0.00 | 0.00 | 0.00 | 94 | 1010.5 |
| 20260509140502 | 75 | 235 | 0.0 | 0.0 | 0.00 | 0.00 | 0.00 | 95 | 1010.4 |
| 20260509140022 | 75 | 235 | 0.0 | 0.0 | 0.00 | 0.00 | 0.00 | 95 | 1010.5 |
| 20260509135504 | 75 | 236 | 0.0 | 0.0 | 0.00 | 0.00 | 0.00 | 95 | 1010.5 |
| 20260509135003 | 75 | 235 | 0.0 | 0.0 | 0.00 | 0.00 | 0.00 | 95 | 1010.9 |
| 20260509134522 | 74 | 235 | 0.0 | 0.0 | 0.00 | 0.00 | 0.00 | 95 | 1010.8 |
| 20260509134003 | 74 | 235 | 0.0 | 0.0 | 0.00 | 0.00 | 0.00 | 95 | 1011.0 |
| 20260509133506 | 74 | 235 | 0.0 | 0.0 | 0.00 | 0.00 | 0.00 | 95 | 1011.0 |
| 20260509133019 | 74 | 233 | 0.0 | 1.0 | 0.00 | 0.00 | 0.00 | 95 | 1011.0 |
| 20260509132505 | 74 | 213 | 0.0 | 1.0 | 0.00 | 0.00 | 0.00 | 96 | 1011.1 |
| 20260509132007 | 74 | 153 | 0.0 | 0.0 | 0.00 | 0.00 | 0.00 | 96 | 1011.0 |
| 20260509131514 | 74 | 153 | 0.0 | 0.0 | 0.00 | 0.00 | 0.00 | 96 | 1011.0 |
| 20260509131005 | 74 | 153 | 0.0 | 0.0 | 0.00 | 0.00 | 0.00 | 96 | 1011.1 |
| 20260509130509 | 74 | 152 | 0.0 | 0.0 | 0.00 | 0.00 | 0.00 | 96 | 1011.1 |
| 20260509130014 | 74 | 152 | 0.0 | 0.0 | 0.00 | 0.00 | 0.00 | 96 | 1011.1 |
| 20260509125509 | 73 | 152 | 0.0 | 0.0 | 0.00 | 0.00 | 0.00 | 96 | 1010.7 |
| 20260509125010 | 73 | 152 | 0.0 | 0.0 | 0.00 | 0.00 | 0.00 | 96 | 1010.8 |
| 20260509124511 | 73 | 152 | 0.0 | 0.0 | 0.00 | 0.00 | 0.00 | 96 | 1011.0 |
| 20260509124007 | 73 | 152 | 0.0 | 0.0 | 0.00 | 0.00 | 0.00 | 96 | 1010.9 |
| 20260509123503 | 73 | 152 | 0.0 | 0.0 | 0.00 | 0.00 | 0.00 | 96 | 1011.0 |
| 20260509123005 | 73 | 152 | 0.0 | 0.0 | 0.00 | 0.00 | 0.00 | 96 | 1011.0 |
| 20260509122508 | 73 | 152 | 0.0 | 0.0 | 0.00 | 0.00 | 0.00 | 96 | 1010.9 |
| 20260509122006 | 73 | 152 | 0.0 | 0.0 | 0.00 | 0.00 | 0.00 | 96 | 1010.8 |
| 20260509121527 | 73 | 152 | 0.0 | 0.0 | 0.00 | 0.00 | 0.00 | 96 | 1011.0 |
| 20260509121006 | 73 | 153 | 0.0 | 0.0 | 0.00 | 0.00 | 0.00 | 96 | 1010.9 |
| 20260509120504 | 73 | 153 | 0.0 | 0.0 | 0.00 | 0.00 | 0.00 | 96 | 1010.8 |
| 20260509120023 | 73 | 153 | 0.0 | 0.0 | 0.00 | 0.00 | 0.00 | 96 | 1010.6 |
| 20260509115506 | 73 | 153 | 0.0 | 0.0 | 0.00 | 0.00 | 0.00 | 96 | 1010.4 |
| 20260509115006 | 73 | 153 | 0.0 | 0.0 | 0.00 | 0.00 | 0.00 | 96 | 1010.3 |
| 20260509114525 | 73 | 153 | 0.0 | 0.0 | 0.00 | 0.00 | 0.00 | 96 | 1010.2 |
| 20260509114007 | 73 | 89 | 0.0 | 0.0 | 0.00 | 0.00 | 0.00 | 96 | 1010.6 |
| 20260509113507 | 73 | 89 | 0.0 | 0.0 | 0.00 | 0.00 | 0.00 | 96 | 1010.5 |
| 20260509113020 | 73 | 89 | 0.0 | 0.0 | 0.00 | 0.00 | 0.00 | 96 | 1010.6 |
| 20260509112503 | 73 | 89 | 0.0 | 0.0 | 0.00 | 0.00 | 0.00 | 96 | 1010.5 |
| 20260509112007 | 73 | 89 | 0.0 | 0.0 | 0.00 | 0.00 | 0.00 | 96 | 1010.6 |
| 20260509111526 | 73 | 89 | 0.0 | 0.0 | 0.00 | 0.00 | 0.00 | 96 | 1010.5 |
| 20260509111014 | 73 | 89 | 0.0 | 0.0 | 0.00 | 0.00 | 0.00 | 96 | 1010.5 |
| 20260509110507 | 73 | 89 | 0.0 | 0.0 | 0.00 | 0.00 | 0.00 | 96 | 1010.7 |
| 20260509110014 | 73 | 89 | 0.0 | 0.0 | 0.00 | 0.00 | 0.00 | 96 | 1010.7 |
| 20260509105507 | 73 | 89 | 0.0 | 0.0 | 0.00 | 0.00 | 0.00 | 96 | 1010.8 |
| 20260509105007 | 73 | 89 | 0.0 | 0.0 | 0.00 | 0.00 | 0.00 | 96 | 1010.7 |
| 20260509104523 | 73 | 89 | 0.0 | 0.0 | 0.00 | 0.00 | 0.00 | 96 | 1010.6 |
| 20260509104008 | 73 | 89 | 0.0 | 0.0 | 0.00 | 0.00 | 0.00 | 96 | 1010.5 |
| 20260509103503 | 73 | 89 | 0.0 | 0.0 | 0.00 | 0.00 | 0.00 | 96 | 1010.6 |
| 20260509103029 | 73 | 89 | 0.0 | 0.0 | 0.00 | 0.00 | 0.00 | 96 | 1010.8 |
| 20260509102510 | 73 | 89 | 0.0 | 0.0 | 0.00 | 0.00 | 0.00 | 95 | 1010.6 |
| 20260509102004 | 73 | 89 | 0.0 | 0.0 | 0.00 | 0.00 | 0.00 | 95 | 1010.4 |
| 20260509101530 | 73 | 89 | 0.0 | 0.0 | 0.00 | 0.00 | 0.00 | 96 | 1010.2 |
| 20260509101007 | 73 | 89 | 0.0 | 0.0 | 0.00 | 0.00 | 0.00 | 96 | 1010.2 |
| 20260509100504 | 73 | 89 | 0.0 | 0.0 | 0.00 | 0.00 | 0.00 | 96 | 1010.0 |
| 20260509100031 | 73 | 89 | 0.0 | 0.0 | 0.00 | 0.00 | 0.00 | 95 | 1010.0 |
| 20260509095508 | 73 | 89 | 0.0 | 0.0 | 0.00 | 0.00 | 0.00 | 96 | 1010.1 |
| 20260509095007 | 72 | 89 | 0.0 | 0.0 | 0.00 | 0.00 | 0.00 | 96 | 1010.0 |
| 20260509094527 | 72 | 89 | 0.0 | 0.0 | 0.00 | 0.00 | 0.00 | 96 | 1010.0 |
| 20260509094005 | 72 | 89 | 0.0 | 0.0 | 0.00 | 0.00 | 0.00 | 95 | 1010.0 |
| 20260509093507 | 72 | 89 | 0.0 | 0.0 | 0.00 | 0.00 | 0.00 | 95 | 1010.0 |
| 20260509093022 | 72 | 89 | 0.0 | 0.0 | 0.00 | 0.00 | 0.00 | 95 | 1010.1 |
| 20260509092503 | 72 | 89 | 0.0 | 0.0 | 0.00 | 0.00 | 0.00 | 95 | 1010.3 |
| 20260509092007 | 72 | 89 | 0.0 | 0.0 | 0.00 | 0.00 | 0.00 | 95 | 1010.3 |
| 20260509091517 | 73 | 89 | 0.0 | 0.0 | 0.00 | 0.00 | 0.00 | 95 | 1010.2 |
| 20260509091008 | 73 | 89 | 0.0 | 0.0 | 0.00 | 0.00 | 0.00 | 95 | 1010.1 |
| 20260509090509 | 73 | 89 | 0.0 | 0.0 | 0.00 | 0.00 | 0.00 | 95 | 1010.2 |
| 20260509090016 | 73 | 89 | 0.0 | 0.0 | 0.00 | 0.00 | 0.00 | 95 | 1010.2 |
| 20260509085508 | 73 | 89 | 0.0 | 0.0 | 0.00 | 0.00 | 0.00 | 95 | 1010.3 |
| 20260509085009 | 73 | 89 | 0.0 | 0.0 | 0.00 | 0.00 | 0.00 | 95 | 1010.4 |
| 20260509084528 | 73 | 89 | 0.0 | 0.0 | 0.00 | 0.00 | 0.00 | 95 | 1010.5 |
| 20260509084008 | 73 | 89 | 0.0 | 0.0 | 0.00 | 0.00 | 0.00 | 95 | 1010.6 |
| 20260509083507 | 73 | 89 | 0.0 | 0.0 | 0.00 | 0.00 | 0.00 | 95 | 1010.6 |
| 20260509083038 | 73 | 89 | 0.0 | 0.0 | 0.00 | 0.00 | 0.00 | 95 | 1010.5 |
| 20260509082508 | 73 | 89 | 0.0 | 0.0 | 0.00 | 0.00 | 0.00 | 95 | 1010.5 |
| 20260509082007 | 72 | 89 | 0.0 | 0.0 | 0.00 | 0.00 | 0.00 | 95 | 1010.7 |
| 20260509081528 | 72 | 89 | 0.0 | 0.0 | 0.00 | 0.00 | 0.00 | 95 | 1010.7 |
| 20260509081007 | 72 | 89 | 0.0 | 0.0 | 0.00 | 0.00 | 0.00 | 95 | 1010.6 |
| 20260509080507 | 72 | 89 | 0.0 | 0.0 | 0.00 | 0.00 | 0.00 | 95 | 1010.4 |
| 20260509080025 | 72 | 89 | 0.0 | 0.0 | 0.00 | 0.00 | 0.00 | 95 | 1010.3 |
| 20260509075506 | 72 | 89 | 0.0 | 0.0 | 0.00 | 0.00 | 0.00 | 95 | 1010.2 |
| 20260509075010 | 72 | 89 | 0.0 | 0.0 | 0.00 | 0.00 | 0.00 | 95 | 1010.3 |
| 20260509074522 | 72 | 89 | 0.0 | 0.0 | 0.00 | 0.00 | 0.00 | 95 | 1010.5 |
| 20260509074009 | 72 | 89 | 0.0 | 0.0 | 0.00 | 0.00 | 0.00 | 95 | 1010.4 |
| 20260509073508 | 72 | 89 | 0.0 | 0.0 | 0.00 | 0.00 | 0.00 | 95 | 1010.2 |
| 20260509073022 | 72 | 87 | 0.0 | 0.0 | 0.00 | 0.00 | 0.00 | 95 | 1010.1 |
| 20260509072508 | 72 | 87 | 0.0 | 0.0 | 0.00 | 0.00 | 0.00 | 95 | 1010.1 |
| 20260509072010 | 72 | 87 | 0.0 | 0.0 | 0.00 | 0.00 | 0.00 | 95 | 1010.3 |
| 20260509071519 | 72 | 87 | 0.0 | 0.0 | 0.00 | 0.00 | 0.00 | 95 | 1010.4 |
| 20260509071008 | 72 | 87 | 0.0 | 0.0 | 0.00 | 0.00 | 0.00 | 95 | 1010.2 |
| 20260509070509 | 72 | 87 | 0.0 | 0.0 | 0.00 | 0.00 | 0.00 | 95 | 1010.2 |
| 20260509070027 | 72 | 87 | 0.0 | 0.0 | 0.00 | 0.00 | 0.00 | 95 | 1010.2 |
| 20260509065511 | 72 | 87 | 0.0 | 0.0 | 0.00 | 0.00 | 0.00 | 95 | 1010.2 |
| 20260509065007 | 72 | 87 | 0.0 | 0.0 | 0.00 | 0.00 | 0.00 | 95 | 1010.2 |
| 20260509064530 | 72 | 87 | 0.0 | 0.0 | 0.00 | 0.00 | 0.00 | 95 | 1010.4 |
| 20260509064008 | 72 | 87 | 0.0 | 0.0 | 0.00 | 0.00 | 0.00 | 95 | 1010.4 |
| 20260509063505 | 72 | 87 | 0.0 | 1.0 | 0.00 | 0.00 | 0.00 | 95 | 1010.4 |
| 20260509063034 | 72 | 87 | 0.0 | 1.0 | 0.00 | 0.00 | 0.00 | 95 | 1010.3 |
| 20260509062512 | 72 | 87 | 0.0 | 0.0 | 0.00 | 0.00 | 0.00 | 95 | 1010.3 |
| 20260509062010 | 72 | 87 | 0.0 | 0.0 | 0.00 | 0.00 | 0.00 | 95 | 1010.3 |
| 20260509061512 | 72 | 88 | 0.0 | 1.0 | 0.00 | 0.00 | 0.00 | 95 | 1010.5 |
| 20260509061004 | 72 | 87 | 0.0 | 1.0 | 0.00 | 0.00 | 0.00 | 95 | 1010.7 |
| 20260509060503 | 72 | 87 | 0.0 | 1.0 | 0.00 | 0.00 | 0.00 | 95 | 1010.7 |
| 20260509060005 | 72 | 87 | 0.0 | 1.0 | 0.00 | 0.00 | 0.00 | 95 | 1010.7 |
| 20260509055501 | 72 | 87 | 0.0 | 1.0 | 0.00 | 0.00 | 0.00 | 95 | 1010.7 |
| 20260509055001 | 72 | 87 | 0.0 | 1.0 | 0.00 | 0.00 | 0.00 | 95 | 1010.7 |
| 20260509054503 | 72 | 87 | 0.0 | 1.0 | 0.00 | 0.00 | 0.00 | 95 | 1010.7 |
| 20260509054002 | 72 | 87 | 0.0 | 1.0 | 0.00 | 0.00 | 0.00 | 95 | 1010.9 |
| 20260509053503 | 72 | 87 | 0.0 | 1.0 | 0.00 | 0.00 | 0.00 | 95 | 1010.8 |
| 20260509053021 | 72 | 87 | 0.0 | 0.0 | 0.00 | 0.00 | 0.00 | 95 | 1010.8 |
| 20260509052503 | 72 | 87 | 0.0 | 0.0 | 0.00 | 0.00 | 0.00 | 95 | 1010.8 |
| 20260509052003 | 72 | 87 | 0.0 | 0.0 | 0.00 | 0.00 | 0.00 | 95 | 1010.9 |
| 20260509051508 | 72 | 87 | 0.0 | 0.0 | 0.00 | 0.00 | 0.00 | 95 | 1010.8 |
| 20260509051004 | 72 | 87 | 0.0 | 1.0 | 0.00 | 0.00 | 0.00 | 95 | 1010.9 |
| 20260509050506 | 72 | 87 | 0.0 | 1.0 | 0.00 | 0.00 | 0.00 | 95 | 1010.8 |
| 20260509050010 | 72 | 87 | 0.0 | 0.0 | 0.00 | 0.00 | 0.00 | 95 | 1010.7 |
| 20260509045504 | 72 | 87 | 0.0 | 1.0 | 0.00 | 0.00 | 0.00 | 95 | 1010.6 |
| 20260509045002 | 72 | 88 | 0.0 | 1.0 | 0.00 | 0.00 | 0.00 | 95 | 1010.7 |
| 20260509044508 | 72 | 87 | 0.0 | 1.0 | 0.00 | 0.00 | 0.00 | 95 | 1010.9 |
| 20260509044003 | 72 | 87 | 0.0 | 1.0 | 0.00 | 0.00 | 0.00 | 95 | 1011.0 |
| 20260509043506 | 72 | 87 | 0.0 | 0.0 | 0.00 | 0.00 | 0.00 | 95 | 1010.9 |
| 20260509043009 | 72 | 87 | 0.0 | 0.0 | 0.00 | 0.00 | 0.00 | 95 | 1010.8 |
| 20260509042505 | 72 | 87 | 0.0 | 0.0 | 0.00 | 0.00 | 0.00 | 95 | 1010.8 |
| 20260509042006 | 72 | 87 | 0.0 | 1.0 | 0.00 | 0.00 | 0.00 | 94 | 1010.9 |
| 20260509041507 | 72 | 87 | 0.0 | 1.0 | 0.00 | 0.00 | 0.00 | 94 | 1010.9 |
| 20260509041006 | 72 | 87 | 0.0 | 1.0 | 0.00 | 0.00 | 0.00 | 94 | 1010.9 |
| 20260509040503 | 72 | 87 | 0.0 | 0.0 | 0.00 | 0.00 | 0.00 | 94 | 1010.9 |
| 20260509040007 | 72 | 87 | 0.0 | 0.0 | 0.00 | 0.00 | 0.00 | 94 | 1010.8 |
| 20260509035505 | 72 | 87 | 0.0 | 0.0 | 0.00 | 0.00 | 0.00 | 94 | 1010.7 |
| 20260509035006 | 72 | 87 | 0.0 | 0.0 | 0.00 | 0.00 | 0.00 | 94 | 1010.6 |
| 20260509034511 | 72 | 87 | 0.0 | 0.0 | 0.00 | 0.00 | 0.00 | 94 | 1010.5 |
| 20260509034005 | 72 | 87 | 0.0 | 1.0 | 0.00 | 0.00 | 0.00 | 94 | 1010.5 |
| 20260509033506 | 72 | 88 | 0.0 | 1.0 | 0.00 | 0.00 | 0.00 | 94 | 1010.5 |
| 20260509033012 | 72 | 86 | 0.0 | 0.0 | 0.00 | 0.00 | 0.00 | 94 | 1010.5 |
| 20260509032506 | 72 | 88 | 0.0 | 0.0 | 0.00 | 0.00 | 0.00 | 94 | 1010.5 |
| 20260509032004 | 72 | 88 | 0.0 | 1.0 | 0.00 | 0.00 | 0.00 | 94 | 1010.6 |
| 20260509031516 | 72 | 88 | 0.0 | 1.0 | 0.00 | 0.00 | 0.00 | 94 | 1010.6 |
| 20260509031007 | 72 | 88 | 0.0 | 1.0 | 0.00 | 0.00 | 0.00 | 94 | 1010.5 |
| 20260509030504 | 72 | 87 | 0.0 | 1.0 | 0.00 | 0.00 | 0.00 | 94 | 1010.3 |
| 20260509030012 | 72 | 88 | 0.0 | 1.0 | 0.00 | 0.00 | 0.00 | 94 | 1010.3 |
| 20260509025503 | 72 | 88 | 0.0 | 1.0 | 0.00 | 0.00 | 0.00 | 94 | 1010.4 |
| 20260509025003 | 72 | 100 | 0.0 | 1.0 | 0.00 | 0.00 | 0.00 | 94 | 1010.2 |
| 20260509024512 | 72 | 101 | 0.0 | 1.0 | 0.00 | 0.00 | 0.00 | 94 | 1010.1 |
| 20260509024009 | 72 | 101 | 0.0 | 1.0 | 0.00 | 0.00 | 0.00 | 93 | 1010.0 |
| 20260509023507 | 72 | 87 | 0.0 | 1.0 | 0.00 | 0.00 | 0.00 | 93 | 1009.9 |
| 20260509023014 | 72 | 72 | 0.0 | 0.0 | 0.00 | 0.00 | 0.00 | 93 | 1010.0 |
| 20260509022505 | 72 | 72 | 0.0 | 0.0 | 0.00 | 0.00 | 0.00 | 93 | 1010.2 |
| 20260509022005 | 72 | 72 | 0.0 | 0.0 | 0.00 | 0.00 | 0.00 | 93 | 1010.1 |
| 20260509021511 | 72 | 72 | 0.0 | 0.0 | 0.00 | 0.00 | 0.00 | 93 | 1010.0 |
| 20260509021005 | 72 | 72 | 0.0 | 0.0 | 0.00 | 0.00 | 0.00 | 93 | 1010.0 |
| 20260509020509 | 72 | 72 | 0.0 | 0.0 | 0.00 | 0.00 | 0.00 | 93 | 1009.9 |
| 20260509020016 | 72 | 72 | 0.0 | 1.0 | 0.00 | 0.00 | 0.00 | 93 | 1009.9 |
| 20260509015506 | 72 | 71 | 0.0 | 1.0 | 0.00 | 0.00 | 0.00 | 92 | 1010.0 |
| 20260509015008 | 73 | 71 | 0.0 | 1.0 | 0.00 | 0.00 | 0.00 | 92 | 1009.9 |
| 20260509014520 | 73 | 73 | 0.0 | 0.0 | 0.00 | 0.00 | 0.00 | 92 | 1009.9 |
| 20260509014008 | 73 | 77 | 0.0 | 0.0 | 0.00 | 0.00 | 0.00 | 92 | 1009.9 |
| 20260509013506 | 73 | 77 | 0.0 | 0.0 | 0.00 | 0.00 | 0.00 | 91 | 1010.0 |
| 20260509013016 | 73 | 94 | 0.0 | 0.0 | 0.00 | 0.00 | 0.00 | 91 | 1010.1 |
| 20260509012505 | 73 | 94 | 0.0 | 0.0 | 0.00 | 0.00 | 0.00 | 91 | 1010.0 |
| 20260509012007 | 74 | 94 | 0.0 | 0.0 | 0.00 | 0.00 | 0.00 | 91 | 1009.9 |
| 20260509011518 | 74 | 94 | 0.0 | 0.0 | 0.00 | 0.00 | 0.00 | 90 | 1009.7 |
| 20260509011003 | 74 | 95 | 0.0 | 0.0 | 0.00 | 0.00 | 0.00 | 90 | 1009.7 |
| 20260509010503 | 74 | 75 | 0.0 | 0.0 | 0.00 | 0.00 | 0.00 | 90 | 1009.7 |
| 20260509010024 | 74 | 75 | 0.0 | 0.0 | 0.00 | 0.00 | 0.00 | 90 | 1009.6 |
| 20260509005505 | 74 | 75 | 0.0 | 0.0 | 0.00 | 0.00 | 0.00 | 90 | 1009.6 |
| 20260509005006 | 74 | 85 | 0.0 | 0.0 | 0.00 | 0.00 | 0.00 | 90 | 1009.5 |
| 20260509004531 | 74 | 80 | 0.0 | 0.0 | 0.00 | 0.00 | 0.00 | 89 | 1009.3 |
| 20260509004006 | 74 | 84 | 0.0 | 0.0 | 0.00 | 0.00 | 0.00 | 89 | 1009.3 |
| 20260509003507 | 74 | 81 | 0.0 | 0.0 | 0.00 | 0.00 | 0.00 | 89 | 1009.3 |
| 20260509003017 | 74 | 87 | 0.0 | 0.0 | 0.00 | 0.00 | 0.00 | 89 | 1009.2 |
| 20260509002503 | 75 | 72 | 0.0 | 1.0 | 0.00 | 0.00 | 0.00 | 88 | 1009.4 |
| 20260509002006 | 75 | 78 | 0.0 | 1.0 | 0.00 | 0.00 | 0.00 | 88 | 1009.4 |
| 20260509001518 | 75 | 76 | 0.0 | 1.0 | 0.00 | 0.00 | 0.00 | 88 | 1009.6 |
| 20260509001007 | 75 | 83 | 0.0 | 1.0 | 0.00 | 0.00 | 0.00 | 88 | 1009.8 |
| 20260509000509 | 75 | 83 | 0.0 | 1.0 | 0.00 | 0.00 | 0.00 | 88 | 1009.7 |
| 20260509000019 | 75 | 83 | 0.0 | 1.0 | 0.00 | 0.00 | 0.00 | 87 | 1009.7 |
| 20260508235508 | 75 | 84 | 0.0 | 1.0 | 0.00 | 0.00 | 0.00 | 87 | 1009.7 |
| 20260508235004 | 76 | 255 | 0.0 | 2.0 | 0.00 | 0.00 | 0.00 | 87 | 1009.8 |
| 20260508234521 | 76 | 76 | 0.0 | 2.0 | 0.00 | 0.00 | 0.00 | 86 | 1009.8 |
| 20260508234007 | 76 | 74 | 0.0 | 1.0 | 0.00 | 0.00 | 0.00 | 86 | 1009.8 |
| 20260508233504 | 76 | 75 | 0.0 | 1.0 | 0.00 | 0.00 | 0.00 | 86 | 1009.8 |
| 20260508233021 | 76 | 75 | 0.0 | 1.0 | 0.00 | 0.00 | 0.00 | 86 | 1009.7 |
| 20260508232506 | 76 | 75 | 0.0 | 1.0 | 0.00 | 0.00 | 0.00 | 85 | 1009.7 |
| 20260508232009 | 76 | 78 | 0.0 | 1.0 | 0.00 | 0.00 | 0.00 | 86 | 1009.7 |
| 20260508231521 | 76 | 77 | 0.0 | 1.0 | 0.00 | 0.00 | 0.00 | 86 | 1009.7 |
| 20260508231005 | 76 | 77 | 0.0 | 1.0 | 0.00 | 0.00 | 0.00 | 85 | 1009.7 |
| 20260508230508 | 77 | 78 | 0.0 | 1.0 | 0.00 | 0.00 | 0.00 | 85 | 1009.7 |
| 20260508230019 | 77 | 77 | 0.0 | 1.0 | 0.00 | 0.00 | 0.00 | 85 | 1009.7 |
| 20260508225512 | 77 | 77 | 0.0 | 2.0 | 0.00 | 0.00 | 0.00 | 85 | 1009.7 |
| 20260508225011 | 77 | 77 | 0.0 | 3.0 | 0.00 | 0.00 | 0.00 | 84 | 1009.7 |
| 20260508224527 | 77 | 76 | 1.0 | 3.0 | 0.00 | 0.00 | 0.00 | 83 | 1009.5 |
| 20260508224008 | 77 | 94 | 0.0 | 2.0 | 0.00 | 0.00 | 0.00 | 84 | 1009.5 |
| 20260508223508 | 77 | 89 | 0.0 | 1.0 | 0.00 | 0.00 | 0.00 | 83 | 1009.5 |
| 20260508223035 | 78 | 89 | 0.0 | 1.0 | 0.00 | 0.00 | 0.00 | 83 | 1009.6 |
| 20260508222507 | 78 | 89 | 0.0 | 1.0 | 0.00 | 0.00 | 0.00 | 83 | 1009.5 |
| 20260508222011 | 78 | 89 | 0.0 | 2.0 | 0.00 | 0.00 | 0.00 | 82 | 1009.5 |
| 20260508221524 | 78 | 94 | 0.0 | 2.0 | 0.00 | 0.00 | 0.00 | 82 | 1009.7 |
| 20260508221010 | 78 | 85 | 0.0 | 1.0 | 0.00 | 0.00 | 0.00 | 83 | 1009.7 |
| 20260508220507 | 78 | 83 | 0.0 | 1.0 | 0.00 | 0.00 | 0.00 | 83 | 1009.7 |
| 20260508220027 | 78 | 158 | 0.0 | 1.0 | 0.00 | 0.00 | 0.00 | 83 | 1009.7 |
| 20260508215508 | 78 | 226 | 0.0 | 0.0 | 0.00 | 0.00 | 0.00 | 83 | 1009.7 |
| 20260508215010 | 78 | 226 | 0.0 | 1.0 | 0.00 | 0.00 | 0.00 | 82 | 1009.9 |
| 20260508214522 | 78 | 226 | 0.0 | 1.0 | 0.00 | 0.00 | 0.00 | 82 | 1009.9 |
| 20260508214008 | 78 | 226 | 0.0 | 1.0 | 0.00 | 0.00 | 0.00 | 82 | 1010.1 |
| 20260508213506 | 78 | 77 | 0.0 | 1.0 | 0.00 | 0.00 | 0.00 | 82 | 1009.9 |
| 20260508213024 | 78 | 76 | 0.0 | 1.0 | 0.00 | 0.00 | 0.00 | 82 | 1009.9 |